metlocid,date_time,avg_wspd,std_wspd,min_wspd,max_wspd,n_wspd,n_comments
BOYM,11/1/93,3.952819956,1.792746174,0,7.3,922,4
BOYM,12/1/93,4.547043013,2.178497832,0,14.6,4464,8
BOYM,1/1/94,4.670536694,2.020562098,0.2,9.3,1826,156
BOYM,2/1/94,3.914732153,2.070810803,0.5,8.1,224,224
BOYM,3/1/94,2.266532267,2.223186828,0.3,12,248,248
BOYM,4/1/94,2.602499994,2.884846047,0.3,13.9,240,240
BOYM,5/1/94,3.227419355,3.735557085,0.3,15.8,248,248
BOYM,6/1/94,3.402916678,3.517599493,0.4,12,240,240
BOYM,7/1/94,3.656451611,3.792294356,0.4,13.7,248,248
BOYM,8/1/94,2.548387098,2.989305746,0.3,11.9,248,248
BOYM,9/1/94,3.397916668,4.030962262,0.3,18.6,240,240
BOYM,10/1/94,4.061290324,2.948881892,0.5,11.1,248,248
BOYM,11/1/94,5.872043002,2.892733232,0.9,13.3,93,1411
BOYM,12/1/94,4.689424388,1.890402373,0,9.72,1911,2232
BOYM,1/1/95,4.512925077,1.955870153,0.02,11.23,2229,1397
BOYM,2/1/95,4.748789683,3.000669952,0.01,14.23,2016,0
BOYM,3/1/95,2.650228491,3.110645484,0,13.84,2232,3
BOYM,4/1/95,2.862319439,3.49306583,0,18.65,2160,2
BOYM,5/1/95,3.453624546,4.134667864,0,18.35,2232,6
BOYM,6/1/95,5.231361114,4.828170428,0,17.36,2160,5
BOYM,7/1/95,3.094846153,3.37288189,0,14.37,2080,1
BOYM,11/1/95,5.777634785,2.61770584,0,14,1725,0
BOYM,12/1/95,4.493988576,1.77048984,0.09,9.47,2976,0
BOYM,1/1/96,4.670672723,1.961529302,0,13,2973,3
BOYM,2/1/96,3.515050286,2.307450121,0,10.7,2784,6
BOYM,3/1/96,4.314751346,4.238146988,0,19,2976,4
BOYM,4/1/96,4.27711806,3.915032002,0,17.1,2880,0
BOYM,5/1/96,1.771169357,2.648970394,0,12.6,2976,5
BOYM,6/1/96,3.924583333,4.206714043,0,16.7,2880,1
BOYM,7/1/96,4.361794355,4.098244184,0,17.3,2976,3
BOYM,8/1/96,4.360954297,4.306571205,0,16.9,2976,5
BOYM,9/1/96,2.210243057,2.841815958,0,15.7,2880,8
BOYM,10/1/96,4.156149195,3.167927908,0,13,2976,1
BOYM,11/1/96,5.110423907,2.732941681,0,15.9,2878,5
BOYM,12/1/96,4.651881721,2.049681222,0,10,2976,1
BOYM,1/1/97,4.252486556,2.052553368,0,9.9,2976,4
BOYM,2/1/97,4.054227733,2.627960195,0,12.8,2661,1
BOYM,3/1/97,1.810080647,2.118170891,0,12.2,2976,3
BOYM,4/1/97,2.220504734,2.884343191,0,17.2,2853,7
BOYM,5/1/97,4.994388442,4.549366057,0,18.6,2976,3
BOYM,6/1/97,4.824236113,4.326765426,0,17,2880,1
BOYM,7/1/97,3.203527813,3.857829883,0,16.4,2948,14
BOYM,8/1/97,3.648151885,4.12623783,0,17.7,2976,3
BOYM,9/1/97,4.115972223,3.772734731,0,15.6,2880,0
BOYM,10/1/97,5.194791667,3.740375626,0,15.9,2976,3
BOYM,11/1/97,6.618172311,2.523627586,0,12.4,2867,0
BOYM,12/1/97,4.740020163,1.872470499,0,9.3,2976,1
BOYM,1/1/98,4.351108868,2.006788172,0,11.9,2976,836
BOYM,2/1/98,4.934598216,2.985025422,0,14.8,2688,0
BOYM,3/1/98,2.024159946,2.339689904,0,10.9,2976,13
BOYM,4/1/98,2.703576392,3.808933262,0,15.9,2880,3
BOYM,5/1/98,3.816397852,4.231902043,0,18.1,2976,2
BOYM,6/1/98,4.303263895,4.269349611,0,18,2880,1
BOYM,7/1/98,6.06413794,3.554910152,0.1,13,725,0
BOYM,11/1/98,4.739651299,2.262992206,0,10.3,1778,1
BOYM,12/1/98,5.665860216,2.367587249,0,14.3,2976,1
BOYM,1/1/99,4.408299731,2.224487482,0,11,2976,14
BOYM,2/1/99,3.286941967,2.336885003,0,11.1,2688,2
BOYM,3/1/99,1.249159949,1.830117589,0,11.6,2976,8
BOYM,4/1/99,1.651250004,2.779109756,0,12.6,2880,63
BOYM,5/1/99,2.037533605,3.042898747,0,15.1,2976,55
BOYM,6/1/99,3.013958337,3.7204316,0,15,2880,47
BOYM,7/1/99,4.666834683,4.404017901,0,15.8,2976,3
BOYM,8/1/99,2.122211026,3.430430404,0,13.6,2976,128
BOYM,9/1/99,3.461354171,3.914818471,0,14.2,2880,4
BOYM,10/1/99,4.700302419,3.775898343,0,22.2,2976,0
BOYM,11/1/99,5.47010417,2.482982442,0.1,12.2,2880,0
BOYM,12/1/99,4.964134457,2.18111069,0,11.9,2975,0
BOYM,1/1/00,4.360215056,2.21496131,0,11.5,2976,0
BOYM,2/1/00,4.83703305,2.609844266,0,13.6,2784,2
BOYM,3/1/00,2.793044354,3.411323007,0,14.9,2976,1
BOYM,4/1/00,2.949912617,3.376993966,0,12.4,2861,26
BOYM,5/1/00,1.984543015,2.775845938,0,12.3,2976,4
BOYM,6/1/00,2.070833337,3.229855409,0,15.9,2880,10
BOYM,7/1/00,5.769623663,4.693511847,0,19.3,2976,1
BOYM,8/1/00,4.794892472,4.83379706,0,17.9,2976,5
BOYM,9/1/00,5.334027776,5.20829505,0,18.3,2880,0
BOYM,10/1/00,2.990705882,2.689105178,0,13.2,2550,0
BOYM,11/1/00,5.546456098,2.283646521,0.1,10.4,1298,2
BOYM,12/1/00,4.711827959,1.821356378,0,9.2,2976,0
BOYM,1/1/01,4.688877685,2.252778813,0.1,11.9,2976,0
BOYM,2/1/01,3.971056549,2.662852022,0,13.4,2688,7
BOYM,3/1/01,2.497580649,3.214804133,0,20.2,2976,17
BOYM,4/1/01,3.537777781,4.100266844,0,19,2880,32
BOYM,5/1/01,4.470127686,4.456700895,0,17.4,2976,39
BOYM,6/1/01,4.210069447,3.959422002,0,14.5,2880,10
BOYM,7/1/01,3.779133063,4.345905598,0,18.7,2976,35
BOYM,8/1/01,1.535987906,2.350308806,0,15,2976,65
BOYM,9/1/01,2.634965281,3.495030411,0,17.4,2880,45
BOYM,10/1/01,4.386827963,3.500725674,0,14.3,2976,14
BOYM,11/1/01,5.07805556,2.515355631,0,11.8,2880,5
BOYM,12/1/01,5.214885752,2.495318012,0.1,14.3,2976,0
BOYM,1/1/02,5.303092437,2.649940145,0,18.5,2975,3
BOYM,2/1/02,4.013727679,2.217980073,0,10.8,2688,4
BOYM,3/1/02,3.672177421,3.222320075,0,13.9,2976,6
BOYM,4/1/02,2.966250002,3.727542667,0,17.3,2880,27
BOYM,5/1/02,4.014684143,3.834877023,0,14.4,2976,7
BOYM,6/1/02,2.683680562,3.654320465,0,16.6,2880,24
BOYM,7/1/02,2.789348122,3.632697097,0,16.6,2976,46
BOYM,8/1/02,3.038306455,3.871425732,0,18,2976,38
BOYM,9/1/02,2.896319448,3.60681984,0,13.8,2880,18
BOYM,10/1/02,3.014448927,3.017795882,0,14.5,2976,16
BOYM,11/1/02,5.354756946,2.862651598,0.1,14.9,2880,0
BOYM,12/1/02,5.631371891,2.027407485,0,12.5,2974,3
BOYM,1/1/03,4.391413118,1.979181635,0,9.6,2958,23
BOYM,2/1/03,3.891741071,2.398578901,0,11,2688,11
BOYM,3/1/03,2.439180108,3.281613227,0,13.6,2976,68
BOYM,4/1/03,1.762222228,2.732354728,0,16.1,2880,62
BOYM,5/1/03,5.993447584,4.794963124,0,18.7,2976,104
BOYM,6/1/03,2.938541668,3.491384814,0,16.3,2880,19
BOYM,7/1/03,4.084583341,2.860167197,0.1,11.6,240,2736
BOYM,8/1/03,,,,,0,2976
BOYM,9/1/03,5.684144578,4.99657493,0,20.4,2075,815
BOYM,10/1/03,5.916565862,3.701794859,0.1,16.7,2976,0
BOYM,11/1/03,4.609756946,2.179182177,0,10.6,2880,2
BOYM,12/1/03,4.913104836,2.162882369,0,11.8,2976,4
BOYM,1/1/04,4.433893744,1.998422139,0,9.1,2974,14
BOYM,2/1/04,3.025359193,2.163793263,0,8.8,2784,8
BOYM,3/1/04,1.354495729,2.101010555,0,16.5,2925,67
BOYM,4/1/04,2.73586806,3.152441887,0,12.9,2880,5
BOYM,5/1/04,3.11979167,4.081311552,0,18.2,2976,28
BOYM,6/1/04,5.446875002,5.605323349,0,26,2880,2
BOYM,7/1/04,3.445564519,3.806382147,0,17.5,2976,10
BOYM,8/1/04,5.478897849,5.145147499,0,29.3,2976,1
BOYM,9/1/04,3.39458334,3.858247017,0,17.6,2880,35
BOYM,10/1/04,3.809811831,3.400025386,0,16.4,2976,68
BOYM,11/1/04,5.473958334,2.496967726,0,13.4,2880,8
BOYM,12/1/04,4.537579829,1.944301641,0,11.2,2975,24
BOYM,1/1/05,4.030577959,1.996537964,0,9.6,2976,33
BOYM,2/1/05,2.987946429,2.201644467,0,9.7,2688,38
BOYM,3/1/05,1.876747316,2.254891298,0,11.6,2976,104
BOYM,4/1/05,1.740729168,2.12923647,0,11.1,2880,84
BOYM,5/1/05,4.077251346,3.835542315,0,16.5,2976,42
BOYM,6/1/05,3.868090278,4.483462623,0,15.4,2880,27
BOYM,7/1/05,3.156888446,4.616286805,0,24,2976,200
BOYM,8/1/05,3.594724466,4.205948855,0,19.5,2976,66
BOYM,9/1/05,3.39163195,3.870136122,0,16.5,2880,43
BOYM,10/1/05,5.200974462,3.572907729,0,14.8,2976,9
BOYM,11/1/05,5.166215278,2.152491771,0,12.8,2880,5
BOYM,12/1/05,4.760752687,1.853744418,0,11.8,2976,4
BOYM,1/1/06,4.300369622,1.868790971,0,9.5,2976,9
BOYM,2/1/06,3.270089286,2.252405172,0,9,2688,47
BOYM,3/1/06,2.680006723,3.196345624,0,17.9,2976,89
BOYM,4/1/06,1.780763892,2.725339037,0,14.7,2880,123
BOYM,5/1/06,2.560215059,3.26727546,0,15.5,2976,106
BOYM,6/1/06,3.893159724,4.03115926,0,15.2,2880,116
BOYM,7/1/06,2.307661291,3.226432076,0,16.3,2976,102
BOYM,8/1/06,3.649025545,3.950780258,0,14.5,2976,91
BOYM,9/1/06,3.88545139,4.016949173,0,14.6,2880,55
BOYM,10/1/06,2.796303767,2.87958327,0,12,2976,61
BOYM,11/1/06,4.027256944,2.562832528,0,10.9,2880,47
BOYM,12/1/06,4.678830645,1.70812063,0,10.2,2976,4
BOYM,1/1/07,4.526356052,2.231811298,0,11.2,2876,50
BOYM,2/1/07,3.781845238,2.305997267,0,12.1,2688,12
BOYM,3/1/07,2.992741933,3.243922468,0,15.9,2976,12
BOYM,4/1/07,3.358368058,4.255495122,0,16.5,2880,51
BOYM,5/1/07,3.912399197,4.793719019,0,19.9,2976,96
BOYM,6/1/07,4.240763888,4.124529685,0,18.9,2880,6
BOYM,7/1/07,4.562533606,3.95604303,0,14.3,2976,11
BOYM,8/1/07,4.583736559,4.352040096,0,20.1,2976,52
BOYM,9/1/07,4.531805559,3.746965737,0,15.6,2880,12
BOYM,10/1/07,4.307837835,3.498467683,0,16.8,2960,19
BOYM,11/1/07,4.457541889,1.828848395,0.1,8.8,537,1
BOYM,12/1/07,4.526361804,1.729725984,0,9.8,2974,2
BOYM,1/1/08,4.057224464,1.8360228,0,8.9,2976,40
BOYM,2/1/08,4.258728443,2.228720823,0,11,2784,1
BOYM,3/1/08,2.576310485,3.257754028,0,15.3,2976,43
BOYM,4/1/08,2.951076392,3.462718462,0,18.2,2880,23
BOYM,5/1/08,2.979872315,3.296617284,0,14.6,2976,14
BOYM,6/1/08,5.598263894,4.397420674,0,21.8,2880,7
BOYM,7/1/08,3.65944221,4.330010763,0,18.5,2976,37
BOYM,8/1/08,3.01387769,3.901291185,0,17.4,2976,29
BOYM,9/1/08,6.652812505,3.881982377,0.1,17.6,2880,0
BOYM,10/1/08,3.751881723,2.957486415,0,12.7,2976,4
BOYM,11/1/08,5.21295139,2.846372495,0,17,2880,1
BOYM,12/1/08,5.014280911,2.050129981,0.1,11.9,2976,0
BOYM,1/1/09,4.397647851,2.114804444,0,13,2976,11
BOYM,2/1/09,3.614322914,2.308617095,0,10.5,2688,5
BOYM,3/1/09,1.774731187,2.194276726,0,15.1,2976,38
BOYM,4/1/09,4.311423619,4.168112561,0,14.9,2880,12
BOYM,5/1/09,2.778729843,3.486744343,0,14.3,2976,13
BOYM,6/1/09,3.842569443,3.48829835,0,15.5,2880,8
BOYM,7/1/09,4.083803763,4.025197913,0,16.5,2976,6
BOYM,8/1/09,3.499495969,4.089564882,0,17.3,2976,3
BOYM,9/1/09,4.979791666,4.885009212,0,20.2,2880,7
BOYM,10/1/09,3.780981181,2.980740618,0,12.4,2976,11
BOYM,11/1/09,4.984513886,2.520409864,0,12.2,2880,3
BOYM,12/1/09,4.47579832,1.793747782,0,9.6,2975,3
BOYM,1/1/10,4.360551072,1.855824235,0,9.2,2976,4
BOYM,2/1/10,3.801041668,2.612994432,0,12.7,2688,8
BOYM,3/1/10,1.998622314,2.274510889,0,11.4,2976,31
BOYM,4/1/10,2.72246528,3.249195079,0,13.5,2880,38
BOYM,5/1/10,2.669623654,2.791411431,0,12.6,2976,12
BOYM,6/1/10,2.649861114,3.077219686,0,12.7,2880,14
BOYM,7/1/10,3.800235221,3.998472397,0,16.8,2976,11
BOYM,8/1/10,4.534677419,4.284071783,0,19.2,2976,8
BOYM,9/1/10,3.102986113,3.487424653,0,16.3,2880,14
BOYM,10/1/10,3.948353496,3.17680522,0,18.7,2976,14
BOYM,11/1/10,5.416666672,2.586618257,0,17.6,2880,5
BOYM,12/1/10,4.894489251,2.369226358,0,15,2976,8
BOYM,1/1/11,4.067429136,1.814312444,0,7.8,2011,5
BOYM,12/1/11,5.572562823,2.93812465,0.1,14.8,995,0
BOYM,1/1/12,4.349529571,1.942845474,0,10.5,2976,0
BOYM,2/1/12,4.243462644,3.151228505,0,14.4,2784,11
BOYM,3/1/12,3.324798389,2.953436389,0,13.9,2976,877
BOYM,4/1/12,3.286562501,3.571822005,0,15.9,2880,1771
BOYM,5/1/12,6.395799732,5.075012356,0,17.5,2976,2678
BOYM,6/1/12,3.950173609,4.735447892,0,21.8,2880,2662
BOYM,7/1/12,2.406081992,3.039551045,0,13,2976,2700
BOYM,8/1/12,5.328528225,4.859055754,0,19.9,2976,2195
BOYM,9/1/12,3.420659724,3.832652564,0,14.2,2880,1198
BOYM,10/1/12,3.858131722,3.310681629,0,13.5,2976,216
BOYM,11/1/12,4.452881946,2.465318741,0,12.6,2880,0
BOYM,12/1/12,4.317204302,1.654388529,0,9.5,2976,0
BOYM,1/1/13,3.913172045,2.031958419,0,9.5,2976,0
BOYM,2/1/13,2.962797618,2.26286174,0,9.9,2688,6
BOYM,3/1/13,2.026478496,2.377723893,0,14.3,2976,894
BOYM,4/1/13,1.84385417,3.06651238,0,17,2880,1749
BOYM,5/1/13,3.724831995,4.050238087,0,15.3,2976,2688
BOYM,6/1/13,2.405972227,2.6712183,0,12.9,2880,2600
BOYM,7/1/13,2.355846778,3.116666949,0,13.7,2976,2762
BOYM,8/1/13,3.838743277,4.437160978,0,20.6,2976,2171
BOYM,9/1/13,4.014722226,3.893155162,0.1,17.6,2880,1201
BOYM,10/1/13,3.247849463,2.903882432,0,13.6,2976,275
BOYM,11/1/13,4.796041673,2.576812662,0,11.3,2880,0
BOYM,12/1/13,4.694993281,1.935820277,0.1,11.4,2976,0
BOYM,1/1/14,6.200688447,3.432778011,0.3,15.4,581,0
BOYM,11/1/14,4.336435781,1.957178764,0.1,9.2,1386,1386
BOYM,12/1/14,4.592064559,1.622762396,0.1,8.9,2974,2974
BOYM,1/1/15,3.976144011,2.06690342,0.1,12.7,2972,2972
BOYM,2/1/15,4.584443619,2.362749967,0.1,11.2,2687,2677
BOYM,3/1/15,1.59196338,1.995886162,0.1,12.7,2949,1987
BOYM,4/1/15,1.518934146,1.981376507,0.1,11.7,2308,852
BOYM,5/1/15,2.04556919,3.316726418,0.1,18.8,2934,99
BOYM,6/1/15,3.455497017,4.288884432,0.1,19.3,2847,80
BOYM,7/1/15,3.621218275,3.649460852,0.1,17.3,2955,305
BOYM,8/1/15,4.630758859,4.541702663,0.1,18.1,2965,1120
BOYM,9/1/15,4.081936196,4.074889393,0.1,17.1,2696,1712
BOYM,10/1/15,5.074856372,3.507933119,0.1,15.5,2959,2715
BOYM,11/1/15,4.980153531,2.398093647,0.08,13,2866,1695
BOYM,12/1/15,4.914522854,2.26094911,0,14.35,2976,0
BOYM,1/1/16,4.666646508,2.198873808,0,12.04,2976,0
BOYM,2/1/16,3.919202588,2.564735733,0,16.87,2784,0
BOYM,3/1/16,2.130258738,2.543481328,0,16.03,2976,0
BOYM,4/1/16,1.92404861,2.765313498,0,11.81,2880,0
BOYM,5/1/16,4.375201614,4.90931255,0,25.66,2976,0
BOYM,6/1/16,2.151993055,2.827989425,0,14.28,2880,0
BOYM,7/1/16,1.771952939,2.952226217,0,14.34,2975,0
BOYM,8/1/16,3.11797808,4.023594884,0,20.61,2646,0
BOYM,9/1/16,0.782807017,0.599930807,0,2.86,57,0
BOYM,11/1/16,4.246932808,2.767812125,0,10.99,1265,0
BOYM,12/1/16,5.100369625,2.156499923,0,13.76,2976,0
BOYM,1/1/17,4.295362902,1.975206248,0,9.67,2976,0
BOYM,2/1/17,3.927462798,2.418456256,0,10.42,2688,0
BOYM,3/1/17,2.331286964,2.594517015,0,12.1,2976,0
BOYM,4/1/17,3.038979171,3.441144948,0,15.76,2880,0
BOYM,5/1/17,4.622741935,4.461947779,0,20.23,2976,0
BOYM,6/1/17,3.4430625,3.586181825,0,14.9,2880,0
BOYM,7/1/17,3.988545025,4.232592471,0,16.49,2976,0
BOYM,8/1/17,4.149173389,4.515325688,0,19.99,2976,0
BOYM,9/1/17,3.009506946,3.453314287,0,15.32,2880,0
BOYM,10/1/17,4.241206315,3.341315421,0.03,15.66,2976,0
BOYM,11/1/17,4.572083679,2.674870056,0,13.29,2414,0
BOYM,12/1/17,4.331775063,2.003722856,0,10.58,1307,0
BOYM,1/1/18,3.353318782,1.678474237,0.07,6.43,229,0
BOYM,2/1/18,3.43187872,2.518704529,0,13.6,2688,0
BOYM,3/1/18,2.769771505,2.658051343,0,15.55,2976,0
BOYM,4/1/18,4.384899307,4.816379394,0.01,23.25,2880,0
BOYM,5/1/18,2.055742609,2.778644016,0,14.24,2976,0
BOYM,6/1/18,3.585934024,3.177521125,0,16.17,2880,0
BOYM,7/1/18,4.745688846,5.110443295,0,21.07,2976,0
BOYM,8/1/18,2.719082665,3.53699609,0,15.34,2976,0
BOYM,9/1/18,4.402059028,4.651566157,0,16.84,2880,0
BOYM,10/1/18,5.454492605,3.529139424,0,15.48,2976,0
BOYM,11/1/18,4.602073298,2.32129935,0,12.97,2865,0
BOYM,12/1/18,4.294425404,2.097657259,0.01,12.91,2976,0
BOYM,1/1/19,4.396406905,1.978489377,0.03,12.61,2900,0
BOYM,2/1/19,3.887827382,2.264281503,0,10.73,2688,0
BOYM,3/1/19,2.782731854,2.519488525,0,13.14,2976,0
BOYM,4/1/19,3.339062497,3.47506773,0,12.72,2880,0
BOYM,5/1/19,3.563111562,3.709942464,0,14.36,2976,0
BOYM,6/1/19,5.208020835,4.331912798,0.02,15.39,2880,0
BOYM,7/1/19,4.074559815,4.467169719,0,18.18,2976,0
BOYM,8/1/19,3.914270836,4.06144737,0,15.18,2976,0
BOYM,9/1/19,3.857180555,3.898891851,0,14.55,2880,0
BOYM,10/1/19,3.652395833,2.775071117,0,13.06,2976,0
BOYM,11/1/19,4.804255395,2.246722044,0.079,11.1,2874,0
BOYM,12/1/19,4.405514451,1.942023951,0,10.25,2976,0
BOYM,1/1/20,4.101263105,1.789828905,0,8.32,2976,0
BOYM,2/1/20,3.514483477,2.455496785,0,10.21,2784,0
BOYM,3/1/20,3.385471103,3.870262686,0,18.33,2976,0
BOYM,4/1/20,4.183878122,3.884639679,0,18.41,2880,0
BOYM,5/1/20,2.79189348,2.886119231,0,13.24,2976,0
BOYM,6/1/20,4.476455901,4.403736632,0,15.56,2880,0
BOYM,7/1/20,3.65810316,4.062885285,0,18.24,2976,0
BOYM,8/1/20,4.041383402,3.999858314,0,17.32,2976,0
BOYM,9/1/20,3.513802432,3.570235946,0,15.63,2880,0
BOYM,10/1/20,4.769505713,3.350334564,0.002,14.16,2976,0
BOYM,11/1/20,4.164417016,2.211914398,0,10.07,2880,0
,12/1/20,4.472475636,1.90953777,0.063,10.72,2832,0
BOYM,12/1/20,3.366805547,2.013918691,0.04,6.123,144,0
,1/1/21,4.24036425,2.413676842,0,13.03,2976,0
,2/1/21,3.889274552,2.54956452,0,12.52,2688,0
,3/1/21,3.118162972,3.188991274,0,15.75,2976,0
,4/1/21,1.866753475,2.46185643,0,12.47,2880,0
,5/1/21,3.572865593,3.76477172,0,13.7,2976,0
,6/1/21,4.684020143,4.169981544,0,20.25,2880,0
,7/1/21,3.494146839,3.628655709,0,15.07,2976,0
,8/1/21,13.61857996,5.353828363,4.381,22.41,100,0
,9/1/21,,,,,0,0
,10/1/21,,,,,0,0
,11/1/21,,,,,0,0
BOYM,12/1/21,4.329780053,1.662142552,0.103,9.21,1755,0
,12/1/21,,,,,0,0
BOYM,1/1/22,4.036683133,2.059153732,0,10.95,2976,0
BOYM,2/1/22,3.790515256,2.174553967,0.028,12.82,2688,0
BOYM,3/1/22,3.876834006,3.986746543,0,19.73,2976,0
BOYM,4/1/22,2.420716321,3.408752555,0,15.41,2880,0
BOYM,5/1/22,5.15904906,4.188948448,0,17.57,2976,0
BOYM,6/1/22,2.829059026,3.256823417,0,14.66,2880,0
BOYM,7/1/22,6.597694557,4.499600126,0.004,17.12,2976,0
BOYM,8/1/22,3.783687165,3.851314394,0.001,15.96,2976,0
BOYM,9/1/22,3.878543747,3.863741202,0,14.27,2880,0
BOYM,10/1/22,4.607022177,3.498056248,0.002,18.44,2976,0
BOYM,11/1/22,4.33883229,2.262365434,0.023,14.27,2880,0
BOYM,12/1/22,5.200512123,2.316552431,0.163,11.93,619,0